{"data":{"norad_id":59462,"intl_designator":"2024-068H","name":"STARLINK-31511","alt_names":[],"object_type":"PAYLOAD","status":"ACTIVE","operator":null,"country":"US","launch_date":"2024-04-10","launch_site_code":"AFETR","launch_vehicle":null,"mission":null,"orbit_class":"UNKNOWN","rcs_meters":null,"size_class":null,"mass_kg":null,"dimensions":null,"purposes":["comms"],"wikipedia_slug":null,"has_3d_model":false,"image_url":null,"decayed_at":null,"tle_current":{"epoch":"2026-05-24T19:37:33.395232Z","epoch_age_seconds":101109,"freshness":"FRESH","line1":"1 59462U 24068H   26144.81774763  .00002094  00000+0  85583-4 0  9993","line2":"2 59462  43.0028 324.7530 0001215 285.7098  74.3619 15.27581381120168","mean_motion":15.27581381,"eccentricity":0.0001215,"inclination_deg":43.0028,"raan_deg":324.753,"arg_perigee_deg":285.7098,"mean_anomaly_deg":74.3619,"bstar":8.5583e-5,"rev_number":12016,"period_min":94.266663492411,"perigee_km":482.21132722371,"apogee_km":483.8785944402,"semimajor_km":6861.181960832,"source":"CELESTRAK","updated_at":"2026-05-25T13:38:18.949016Z"}}}